Regional Weather Roundup
Issued by NWS

Home | Current Version | Previous Version | Text Only | Print | Product List | Glossary Off
Versions: 1 2 3 4 5 6 7 8 9 10 11 12 13 14 15 16 17 18 19 20 21 22 23 24 25 26 27 28 29 30 31 32 33 34 35 36 37 38 39 40 41 42 43 44 45 46 47 48 49 50

000
ASUS43 KMKX 121959
RWRWI

WISCONSIN REGIONAL WEATHER ROUNDUP
NATIONAL WEATHER SERVICE MILWAUKEE/SULLIVAN WI
200 PM CST FRI FEB 12 2016

NOTE: "FAIR" INDICATES FEW OR NO CLOUDS BELOW 12,000 FEET WITH NO
SIGNIFICANT WEATHER AND/OR OBSTRUCTIONS TO VISIBILITY.

WIZ001-002-006>008-014>016-023>028-122100-
NORTHWEST WISCONSIN

CITY           SKY/WX    TMP DP  RH WIND       PRES   REMARKS
SUPERIOR ARPT  SUNNY      4 -14  42 NW17G26   30.46S WCI -16
ASHLAND        CLOUDY     2  -9  60 NW18      30.39R WCI -19
HAYWARD        MOSUNNY    4 -14  43 N13G21    30.35R WCI -13
SIREN          SUNNY      6 -14  38 NW17G23   30.42R WCI -12
CUMBERLAND     SUNNY      5 -13  43 NW24      30.35R WCI -17
RICE LAKE      SUNNY      8 -12  40 NW12G20   30.37S WCI  -8
CHETEK         SUNNY      8 -10  45 MISG      30.35S
LADYSMITH      MOSUNNY    6 -10  49 NW20G28   30.32R WCI -14
EAU CLAIRE     NOT AVBL
MENOMONIE      SUNNY     12 -10  37 W18G25    30.38R WCI  -6
NEW RICHMOND   SUNNY      8  -8  47 NW14G26   30.41R WCI  -9
OSCEOLA        SUNNY      8  -9  46 NW13      30.46R WCI  -8
$$

WIZ003>005-009-010-017-018-122100-
NORTH CENTRAL WISCONSIN

CITY           SKY/WX    TMP DP  RH WIND       PRES   REMARKS
MANITOWISH WTR CLOUDY     0 -12  57 NW20G29   30.20R HAZE    WCI -21
ARBOR VITAE    PTSUNNY    3  -6  66 NW15G23   30.19R HAZE    WCI -16
WOODRUFF       PTSUNNY    3  -6  66 NW15G23   30.19R HAZE    WCI -16
RHINELANDER    CLOUDY     3 -11  52 NW20G32   30.17R BLWGSNOWWCI -18
EAGLE RIVER    SNOW       1  -7  66 NW20G35   30.15R VSB 1/2 WCI -20
LAND O LAKES   SNOW       1  -6  75 NW15G31   30.16R VSB 1/4 WCI -19
PHILLIPS       PTSUNNY    3 -11  53 NW14G23   30.23R WCI -15
TOMAHAWK       MOSUNNY    5 -13  43 NW21G28   30.20R WCI -16
MEDFORD        MOSUNNY    7  -8  50 NW18G25   30.20R WCI -12
MERRILL        MOSUNNY    8 -10  43 NW17G26   30.20R WCI -10
$$

WIZ029-030-035-036-043>047-122100-
CENTRAL WISCONSIN

CITY           SKY/WX    TMP DP  RH WIND       PRES   REMARKS
WAUSAU         MOSUNNY   10  -9  42 NW18G28   30.19R WCI  -8
MOSINEE        MOSUNNY    9  -6  52 NW23G32   30.20R WCI -12
MARSHFIELD     MOSUNNY    8  -7  50 NW24G32   30.21R WCI -13
STEVENS POINT  MOSUNNY    9  -8  46 NW10G25   30.19S WCI  -5
WAUPACA        SUNNY     15  -7  36 NW16G26   30.19R WCI   0
WAUTOMA        NOT AVBL
WISC RAPIDS    PTSUNNY   10  -6  48 NW22G32   30.25R WCI -10
CAMP DOUGLAS   NOT AVBL
$$

WIZ011>013-019>022-031-037>040-048>050-122100-
NORTHEAST WISCONSIN

CITY           SKY/WX    TMP DP  RH WIND       PRES   REMARKS
ANTIGO         PTSUNNY    6  -8  52 NW17G26   30.13R WCI -13
SHAWANO        CLOUDY    15  -6  37 NW20G25   30.16R WCI  -2
OCONTO         CLOUDY    12   5  71 N14G20    30.14R WCI  -3
STURGEON BAY   CLOUDY    12   1  62 N16G29    30.13R WCI  -4
GREEN BAY      CLOUDY    13  -2  51 NW21G29   30.15R WCI  -5
MANITOWOC      NOT AVBL
APPLETON       NOT AVBL
CLINTONVILLE   PTSUNNY   14  -6  41 NW18G28   30.16S WCI  -3
OSHKOSH        CLOUDY    14  -3  47 NW23G30   30.16R WCI  -5
$$

WIZ032>034-041-042-053>061-122100-
SOUTHWEST WISCONSIN

CITY           SKY/WX    TMP DP  RH WIND       PRES   REMARKS
LA CROSSE      SUNNY     14  -1  51 NW21      30.34R WCI  -4
SPARTA         MOSUNNY   14   0  52 NW17G31   30.30R WCI  -2
VIROQUA        MOSUNNY   14   0  52 NW25      30.24S WCI  -5
BOSCOBEL       SUNNY     19  -1  41 W15G26    30.30R WCI   5
PRAIRIE DU CHI SUNNY     17  -2  42 NW22G32   30.32R WCI   0
PLATTEVILLE    SUNNY     17   4  57 NW21G29   30.24S WCI   1
$$

WIZ056-057-062-063-064-067-068-122100-
SOUTH CENTRAL WISCONSIN

CITY           SKY/WX    TMP DP  RH WIND       PRES   REMARKS
REEDSBURG      MOSUNNY   15  -1  48 NW22G31   30.22S WCI  -3
BARABOO/DELLS  SUNNY     16  -6  37 NW22G31   30.21R WCI  -2
LONE ROCK      NOT AVBL
MINERAL POINT  SUNNY     21   1  42 NW13G22   30.21S WCI   9
MADISON        MOSUNNY   17  -2  43 NW17G28   30.19R WCI   1
MIDDLETON      MOSUNNY   19   0  43 NW18G26   30.20S WCI   4
WATERTOWN      SUNNY     19   1  46 NW16G28   30.16S WCI   4
MONROE         PTSUNNY   21   5  49 W18G31    30.18S WCI   6
JANESVILLE     MOSUNNY   21   1  42 NW23G30   30.18S WCI   5
$$

WIZ051-052-058>065-066-070>072-122100-
SOUTHEAST WISCONSIN

CITY           SKY/WX    TMP DP  RH WIND       PRES   REMARKS
MILWAUKEE      PTSUNNY   19  -2  39 NW21G29   30.14R WCI   3
WAUKESHA       PTSUNNY   16  -2  45 NW26G32   30.15R WCI  -3
MILWAUKEE/TIMM MOSUNNY   18  -2  41 NW25G36   30.15R WCI  -1
RACINE         MOSUNNY   20  -1  40 W21G30    30.15R WCI   4
BURLINGTON     MOSUNNY   18   2  49 NW16G31   30.15R WCI   4
KENOSHA        MOSUNNY   21   3  45 NW21G28   30.14R WCI   5
FOND DU LAC    PTSUNNY   14  -2  49 NW23G32   30.17R WCI  -5
SHEBOYGAN      CLOUDY    15  -2  46 NW23G32   30.13R WCI  -3
WEST BEND      SUNNY     16  -4  41 NW22G33   30.14R WCI  -2
JUNEAU         SUNNY     15  -3  45 NW16G25   30.16S WCI   0
$$

LSZ147-162-122100-
LAKE SUPERIOR

STATION/POSITION TIME  TEMP    WIND        PRES    WAVE
                       AIR SEA DIR/SP/G            HT/PER
                 (UTC) (F)     (DEG/KT/KT) (MB)    (FT/S)
DEVILS ISLAND    1900    0     340/ 23/ 27 1030.9R
PORT WING        1800    2     320/ 16/ 21 1029.5
SAXON HARBOR     1940    2                 1028.4R
$$

LMZ867-665-643>646-122100-
LAKE MICHIGAN

STATION/POSITION TIME  TEMP    WIND        PRES    WAVE
                       AIR SEA DIR/SP/G            HT/PER
                 (UTC) (F)     (DEG/KT/KT) (MB)    (FT/S)
CHAMBERS ISLAND  1900   14     310/ 18/ 27 1019.3R
SISTER BAY       1905   14     340/ 28/ 33   N/A
ALGOMA LAKESHORE 1911          320/ 17/ 26   N/A
KEWAUNEE LAKESHO 1900   16     300/ 14/ 21 1018.5R
SHEBOYGAN LAKESH 1900   16     300/ 17/ 21 1021.3R
PORT WASHINGTON  1914   18     280/ 16/ 25 1021.0S
MILWAUKEE LAKESH 1910   18     300/ 13/ 16   N/A
KENOSHA   LAKESH 1900   19     310/ 17/ 24 1020.3F
$$

TC  - TEMPERATURE IN CELSIUS
VSB - VISIBILITY IN STATUTE MILES
WCI - WIND CHILL INDEX
HX  - HEAT INDEX




USA.gov is the U.S. government's official web portal to all federal, state and local government web resources and services.